This is the latest recevied weather packets stored in our database for station/object EA5CLU-13. If no packets are shown the sender has not sent any weather packets the latest 10 day(s).
| Time | Temp. | Humidity | Pressure | Rain* | Wind** | Luminosity | Snow |
|---|---|---|---|---|---|---|---|
| 1787390889 | 23.89° C | - | 1019.5 hPa | 0 mm | - | - | - |
| 1787390589 | 23.89° C | - | 1019.4 hPa | 0 mm | - | - | - |
| 1787390288 | 23.89° C | - | 1019.4 hPa | 0 mm | - | - | - |
| 1787389990 | 23.89° C | - | 1019.4 hPa | 0 mm | - | - | - |
| 1787389689 | 23.89° C | - | 1019.3 hPa | 0 mm | - | - | - |
| 1787389390 | 23.89° C | - | 1019.3 hPa | 0 mm | - | - | - |
| 1787389090 | 23.89° C | - | 1019.2 hPa | 0 mm | - | - | - |
| 1787388788 | 23.33° C | - | 1019.5 hPa | 0 mm | - | - | - |
| 1787388488 | 23.33° C | - | 1019.2 hPa | 0 mm | - | - | - |
| 1787388188 | 23.33° C | - | 1019.2 hPa | 0 mm | - | - | - |
| 1787387890 | 23.89° C | - | 1019.2 hPa | 0 mm | - | - | - |
| 1787387590 | 23.89° C | - | 1019.2 hPa | 0 mm | - | - | - |
| 1787387289 | 24.44° C | - | 1019.2 hPa | 0 mm | - | - | - |
| 1787386989 | 24.44° C | - | 1019.3 hPa | 0 mm | - | - | - |
| 1787386689 | 24.44° C | - | 1019.1 hPa | 0 mm | - | - | - |
| 1787386388 | 24.44° C | - | 1019.2 hPa | 0 mm | - | - | - |
| 1787386088 | 23.89° C | - | 1019.1 hPa | 0 mm | - | - | - |
| 1787385788 | 23.33° C | - | 1019.1 hPa | 0 mm | - | - | - |
| 1787385491 | 22.78° C | - | 1019.2 hPa | 0 mm | - | - | - |
| 1787385190 | 22.22° C | - | 1019.2 hPa | 0 mm | - | - | - |
| 1787384889 | 22.22° C | - | 1019.2 hPa | 0 mm | - | - | - |
| 1787384589 | 22.78° C | - | 1019.3 hPa | 0 mm | - | - | - |
| 1787383688 | 21.67° C | - | 1019.4 hPa | 0 mm | - | - | - |
| 1787383388 | 21.67° C | - | 1019.4 hPa | 0 mm | - | - | - |
| 1787383090 | 21.67° C | - | 1019.4 hPa | 0 mm | - | - | - |
* Rain latest hour (hover to see other rain measurements)
** Current wind speed in m/s (hover to see current wind gust speed)